Location: Bord�res
(43.2000°N, 0.2167°W)
Time: 12:11:09
(UTC+00:00)

Cosmos 1666 - Pass Details

Date: 03 March 2021
Orbit: 497 x 518 km, 82.5° (Epoch: 21 April)

Event Time Altitude Azimuth Distance (km) Brightness Sun altitude
Rises 18:27:50 0° 144° (SE) 2,572 5.9 -7.2°
Reaches altitude 10° 18:30:45 10° 118° (ESE) 1,697 4.8 -7.7°
Maximum altitude 18:32:43 14° 86° (E) 1,466 4.3 -8.1°
Drops below altitude 10° 18:34:43 10° 54° (NE) 1,708 4.8 -8.5°
Sets 18:37:39 0° 28° (NNE) 2,601 6.0 -9.0°
